Antigo, WI

3:03 AM CDT on July 22, 2017 (GMT -0500)
Langlade County

Weather History for KAIG - April, 2014

Change the Weather History Date:

Wednesday, April 30, 2014

  Actual Average Record
Temperature  
Mean Temperature 43 °F -  
Max Temperature 49 °F 62 °F 86 °F (1952)
Min Temperature 37 °F 37 °F 5 °F (1956)
Degree Days  
Heating Degree Days 22    
Moisture  
Dew Point 43 °F    
Average Humidity 97    
Maximum Humidity 100    
Minimum Humidity 90    
Precipitation  
Precipitation 0.03 in - - ()
Sea Level Pressure  
Sea Level Pressure 29.66 in    
Wind  
Wind Speed 7 mph (SE)    
Max Wind Speed 13 mph    
Max Gust Speed -    
Visibility 5 miles    
Events Fog , Rain    
Averages and records for this station are not official NWS values.
T = Trace of Precipitation, MM = Missing Value Source: NWS Daily Summary

Daily Weather History Graph

Daily Weather History Graph

Search for Another Location

Airport or City:

Trip Planner

Search our weather history database for the weather conditions in past years. The results will help you decide how hot, cold, wet, or windy it might be!

Date:

Astronomy

Apr. 30, 2014 Rise Set
Actual Time 5:46 AM CDT 8:01 PM CDT
Civil Twilight 5:14 AM CDT 8:33 PM CDT
Nautical Twilight 4:34 AM CDT 9:13 PM CDT
Astronomical Twilight 3:49 AM CDT 9:58 PM CDT
Moon 6:46 AM CDT (4/30) 9:42 PM CDT (4/30)
Length of Visible Light 15h 19m
Length of Day
14h 14m
New Moon, 2% of the Moon is Illuminated
Apr 30
New Moon
May 6
First Quarter
May 14
Full
May 21
Last Quarter
May 28
New

Hourly Weather History & Observations

Time (CDT) Temp. Windchill Dew Point Humidity Pressure Visibility Wind Dir Wind Speed Gust Speed Precip Events Conditions
12:15 AM 38.5 °F 34.1 °F 37.9 °F 98% 29.64 in 10.0 mi East 5.8 mph - N/A   Overcast
12:35 AM 38.5 °F 31.6 °F 38.3 °F 99% 29.64 in 2.0 mi East 10.4 mph - N/A   Light Drizzle
12:55 AM 38.3 °F 32.5 °F 37.9 °F 99% 29.64 in 1.0 mi East 8.1 mph - N/A   Overcast
1:15 AM 38.3 °F 31.9 °F 38.3 °F 100% 29.64 in 0.8 mi East 9.2 mph - N/A   Overcast
1:35 AM 38.3 °F 31.4 °F 38.3 °F 100% 29.64 in 0.5 mi ESE 10.4 mph - N/A Fog Fog
1:55 AM 37.9 °F 32.1 °F 37.9 °F 100% 29.64 in 0.5 mi ESE 8.1 mph - N/A Fog Fog
2:15 AM 38.3 °F 31.9 °F 38.3 °F 100% 29.64 in 0.5 mi ESE 9.2 mph - N/A Fog Fog
2:55 AM 38.3 °F 32.5 °F 38.3 °F 100% 29.64 in 2.0 mi East 8.1 mph - N/A   Overcast
3:15 AM 38.3 °F 33.2 °F 38.3 °F 100% 29.64 in 2.5 mi East 6.9 mph - N/A   Overcast
3:35 AM 38.5 °F 35.0 °F 38.5 °F 100% 29.64 in 1.2 mi East 4.6 mph - N/A   Light Drizzle
3:55 AM 38.5 °F 36.1 °F 38.5 °F 100% 29.64 in 1.0 mi East 3.5 mph - N/A Rain Light Rain
4:15 AM 38.7 °F 35.2 °F 38.7 °F 100% 29.64 in 5.0 mi East 4.6 mph - N/A Rain Light Rain
4:35 AM 38.7 °F 34.3 °F 38.7 °F 100% 29.64 in 7.0 mi East 5.8 mph - N/A Rain Light Rain
4:55 AM 38.8 °F 34.6 °F 38.8 °F 100% 29.64 in 7.0 mi ESE 5.8 mph - 0.01 in   Drizzle
5:15 AM 39.2 °F 33.6 °F 39.2 °F 100% 29.64 in 10.0 mi East 8.1 mph - N/A   Light Drizzle
5:35 AM 39.2 °F 34.2 °F 39.2 °F 100% 29.64 in 10.0 mi East 6.9 mph - N/A   Light Drizzle
5:55 AM 39.2 °F 34.2 °F 39.2 °F 100% 29.64 in 10.0 mi East 6.9 mph - N/A   Light Drizzle
6:15 AM 39.2 °F 35.0 °F 39.2 °F 100% 29.64 in 7.0 mi East 5.8 mph - N/A   Light Drizzle
6:35 AM 39.6 °F 34.7 °F 39.6 °F 100% 29.65 in 1.0 mi East 6.9 mph - N/A   Light Drizzle
6:55 AM 39.6 °F 34.0 °F 39.6 °F 100% 29.65 in 0.2 mi East 8.1 mph - N/A   Light Drizzle
7:15 AM 40.1 °F 34.7 °F 40.1 °F 100% 29.65 in 0.2 mi ESE 8.1 mph - N/A   Light Drizzle
7:35 AM 40.6 °F 36.0 °F 40.6 °F 100% 29.65 in 0.5 mi East 6.9 mph - N/A Fog Fog
7:55 AM 41.0 °F 35.8 °F 41.0 °F 100% 29.65 in 0.2 mi ESE 8.1 mph - N/A Fog Fog
8:15 AM 41.4 °F 36.2 °F 41.4 °F 100% 29.65 in 0.2 mi ESE 8.1 mph - N/A Fog Fog
8:35 AM 41.5 °F 36.4 °F 41.5 °F 100% 29.66 in 0.2 mi East 8.1 mph - N/A Fog Fog
8:55 AM 42.1 °F 38.4 °F 42.1 °F 100% 29.66 in 0.2 mi East 5.8 mph - N/A Fog Fog
9:15 AM 42.4 °F 38.8 °F 42.4 °F 100% 29.66 in 0.2 mi East 5.8 mph - N/A Fog Fog
9:35 AM 43.5 °F 38.9 °F 43.5 °F 100% 29.65 in 0.2 mi East 8.1 mph - N/A Fog Fog
9:55 AM 43.7 °F 39.1 °F 43.7 °F 100% 29.66 in 1.2 mi ESE 8.1 mph - N/A   Overcast
10:15 AM 43.7 °F 38.6 °F 43.7 °F 100% 29.67 in 2.0 mi ESE 9.2 mph - N/A   Overcast
10:35 AM 43.7 °F 39.1 °F 43.7 °F 100% 29.67 in 0.5 mi East 8.1 mph - N/A Fog Fog
10:55 AM 44.1 °F 38.6 °F 44.1 °F 100% 29.67 in 1.2 mi East 10.4 mph - N/A   Overcast
11:15 AM 44.1 °F 38.6 °F 44.1 °F 100% 29.68 in 3.0 mi ESE 10.4 mph - N/A   Overcast
11:35 AM 44.2 °F 39.2 °F 44.2 °F 100% 29.68 in 2.0 mi ESE 9.2 mph - N/A   Overcast
11:55 AM 44.6 °F 39.7 °F 44.6 °F 100% 29.68 in 1.5 mi SE 9.2 mph - N/A   Overcast
12:15 PM 45.0 °F 40.6 °F 44.8 °F 99% 29.68 in 2.5 mi ESE 8.1 mph - N/A   Overcast
12:35 PM 45.5 °F 41.3 °F 45.1 °F 99% 29.68 in 1.5 mi ESE 8.1 mph - N/A   Overcast
12:55 PM 46.6 °F - 45.9 °F 97% 29.68 in 3.0 mi ESE 10.4 mph - N/A   Overcast
1:15 PM 46.9 °F - 46.0 °F 97% 29.68 in 3.0 mi ESE 9.2 mph - N/A   Overcast
1:35 PM 46.8 °F - 45.7 °F 96% 29.68 in 5.0 mi ESE 9.2 mph - N/A   Overcast
1:55 PM 48.2 °F - 46.2 °F 93% 29.68 in 10.0 mi ESE 6.9 mph - N/A   Overcast
2:15 PM 48.2 °F - 46.4 °F 93% 29.68 in 4.0 mi ESE 8.1 mph - N/A   Overcast
2:35 PM 48.6 °F - 47.3 °F 95% 29.68 in 3.0 mi ESE 8.1 mph - N/A   Light Drizzle
2:55 PM 48.6 °F - 46.8 °F 93% 29.67 in 5.0 mi ESE 8.1 mph - N/A   Overcast
3:15 PM 49.3 °F - 46.9 °F 92% 29.67 in 10.0 mi SE 8.1 mph - N/A   Overcast
3:35 PM 48.4 °F - 46.4 °F 93% 29.67 in 7.0 mi SSE 11.5 mph - N/A   Overcast
3:55 PM 48.6 °F - 47.1 °F 95% 29.67 in 7.0 mi SE 10.4 mph - N/A   Overcast
4:15 PM 48.9 °F - 46.9 °F 93% 29.67 in 10.0 mi SE 8.1 mph - N/A   Overcast
4:35 PM 49.5 °F - 46.6 °F 90% 29.67 in 10.0 mi SE 6.9 mph - N/A   Overcast
4:55 PM 48.9 °F - 46.4 °F 91% 29.67 in 10.0 mi SSE 8.1 mph - N/A   Overcast
5:15 PM 47.3 °F - 45.7 °F 94% 29.67 in 3.0 mi South 12.7 mph - 0.01 in Rain Rain
5:35 PM 47.3 °F - 46.0 °F 95% 29.67 in 7.0 mi South 3.5 mph - 0.02 in Rain Light Rain
5:55 PM 47.5 °F - 46.6 °F 97% 29.67 in 10.0 mi SSE 5.8 mph - 0.02 in   Overcast
6:15 PM 47.3 °F - 45.5 °F 93% 29.67 in 10.0 mi SE 4.6 mph - N/A   Overcast
6:35 PM 47.1 °F - 45.7 °F 95% 29.67 in 10.0 mi SE 4.6 mph - N/A   Overcast
6:55 PM 46.9 °F - 45.9 °F 96% 29.67 in 10.0 mi SE 4.6 mph - N/A   Overcast
7:15 PM 46.8 °F - 45.9 °F 97% 29.67 in 10.0 mi ESE 4.6 mph - N/A   Overcast
7:35 PM 46.6 °F - 45.9 °F 97% 29.67 in 10.0 mi SSE 5.8 mph - N/A   Overcast
7:55 PM 46.4 °F 42.9 °F 45.0 °F 95% 29.67 in 10.0 mi SSW 6.9 mph - N/A   Overcast
8:15 PM 45.1 °F 42.8 °F 43.7 °F 95% 29.68 in 10.0 mi SSW 4.6 mph - N/A   Overcast
8:35 PM 44.6 °F 42.2 °F 43.7 °F 97% 29.68 in 10.0 mi South 4.6 mph - N/A   Overcast
8:55 PM 44.4 °F - 43.7 °F 97% 29.68 in 5.0 mi Calm Calm - N/A   Light Drizzle
9:15 PM 44.2 °F - 43.7 °F 98% 29.68 in 5.0 mi Calm Calm - N/A   Light Drizzle
9:35 PM 43.3 °F 39.9 °F 41.7 °F 94% 29.68 in 10.0 mi SW 5.8 mph - N/A   Overcast
9:55 PM 43.0 °F 40.3 °F 41.4 °F 94% 29.68 in 10.0 mi SSW 4.6 mph - N/A   Overcast
10:15 PM 42.8 °F 40.1 °F 41.2 °F 94% 29.67 in 10.0 mi South 4.6 mph - N/A   Overcast
10:35 PM 42.8 °F 41.1 °F 41.5 °F 95% 29.67 in 10.0 mi South 3.5 mph - N/A   Overcast
10:55 PM 42.3 °F 40.5 °F 41.2 °F 96% 29.67 in 10.0 mi SSE 3.5 mph - N/A   Overcast
11:15 PM 42.3 °F 40.5 °F 41.4 °F 97% 29.67 in 10.0 mi South 3.5 mph - N/A   Overcast
11:35 PM 41.9 °F 39.0 °F 40.1 °F 93% 29.66 in 10.0 mi SSW 4.6 mph - N/A   Overcast
11:55 PM 41.5 °F 38.6 °F 39.6 °F 93% 29.65 in 10.0 mi SSW 4.6 mph - N/A   Overcast